This demonstration page uses our WeatherBlox Daily Observations layout. Learn more.

Left ArrowRight Arrow

39.92423, -83.80882

Hourly Observations for November 3, 2020

Temp ( °F °C ) Dew Point ( °F °C ) Humidity (%) Winds ( mph kmh ) Pressure ( in mb ) Visibility ( mi km ) Precip ( " mm )
12:56 am 00:56 Clear 39 3.9 20 -6.7 46 46 WSW 12 19 30.18 1022 10 16 0.01 0.25
1:56 am 01:56 Clear 38 3.3 20 -6.7 48 48 WSW 9 15 30.19 1022 10 16 N/A
2:56 am 02:56 Clear 36 2.2 21 -6.1 55 55 WSW 7 11 30.19 1022 10 16 N/A
3:56 am 03:56 Clear 37 2.8 21 -6.1 52 52 WSW 9 15 30.18 1022 10 16 N/A
4:56 am 04:56 Clear 36 2.2 22 -5.6 57 57 SW 7 11 30.18 1022 10 16 N/A
5:56 am 05:56 Clear 36 2.2 22 -5.6 57 57 SW 7 11 30.19 1023 10 16 N/A
6:56 am 06:56 Clear 34 1.1 23 -5 64 64 SW 8 13 30.21 1023 10 16 N/A
7:56 am 07:56 Sunny 38 3.3 25 -3.9 60 60 SW 7 11 30.22 1023 10 16 N/A
8:56 am 08:56 Sunny 44 6.7 26 -3.3 49 49 W 12 19 30.22 1024 10 16 N/A
9:56 am 09:56 Sunny 48 8.9 28 -2.2 46 46 WSW 10 17 30.23 1024 10 16 N/A
10:56 am 10:56 Sunny 52 11.1 30 -1.1 43 43 SW 8 13 30.24 1024 10 16 N/A
11:56 am 11:56 Sunny 57 13.9 32 undefined 39 39 VRB 7 11 30.22 1024 10 16 N/A
12:56 pm 12:56 Sunny 60 15.6 33 0.6 36 36 SW 10 17 30.21 1023 10 16 N/A
1:56 pm 13:56 Sunny 61 16.1 33 0.6 35 35 WSW 13 20 30.19 1023 10 16 N/A
2:56 pm 14:56 Sunny 62 16.7 33 0.6 34 34 WSW 10 17 30.19 1022 10 16 N/A
3:56 pm 15:56 Sunny 61 16.1 34 1.1 36 36 SSW 12 19 30.19 1023 10 16 0.01 0.25
4:56 pm 16:56 Sunny 59 15 34 1.1 39 39 SW 8 13 30.20 1023 10 16 N/A
5:56 pm 17:56 Clear 52 11.1 34 1.1 50 50 SSW 3 6 30.22 1023 10 16 N/A
6:56 pm 18:56 Clear 51 10.6 34 1.1 52 52 SSW 3 6 30.22 1023 10 16 N/A
7:56 pm 19:56 Clear 52 11.1 34 1.1 50 50 SSW 7 11 30.22 1024 10 16 N/A
8:56 pm 20:56 Clear 51 10.6 33 0.6 50 50 SSW 6 9 30.23 1024 10 16 N/A
9:56 pm 21:56 Clear 48 8.9 34 1.1 58 58 SSW 3 6 30.24 1024 10 16 N/A
10:56 pm 22:56 Clear 46 7.8 34 1.1 63 63 SSW 5 7 30.24 1024 10 16 N/A
11:56 pm 23:56 Clear 47 8.3 35 1.7 63 63 SSW 6 9 30.25 1024 10 16 N/A

Powered by AerisWeather